NOZ77Y LIMC-ENGM

Flight info

Callsign NOZ77Y
Flight time 2h 28m
Altitude 36000
Route OSKOR DCT NESTI DCT TAGIP DCT BRENO DCT KONIN DCT EXITI DCT MAG M736 SOGMA DCT NEDIK DCT SABAK L997 LUNIP
Aircraft B738/M-SDE2E3GHIJ1LRWXY/LB1

Departure

Time 2026-05-07 10:17
Airport Milan Malpensa International Airport (LIMC)

Arrival

Time 2026-05-07 12:45
Airport Oslo-Gardermoen International Airport (ENGM)
Time Latitude Longitude Altitude Speed Heading
2026-05-07 09:31 45.62541 8.71605 739 ft 0 kts 169°
2026-05-07 09:57 45.62544 8.71604 740 ft 2 kts 169°
2026-05-07 09:57 45.62570 8.71597 740 ft 4 kts 167°
2026-05-07 09:57 45.62596 8.71587 737 ft 4 kts 156°
2026-05-07 09:58 45.62616 8.71567 738 ft 4 kts 114°
2026-05-07 09:58 45.62618 8.71568 738 ft 4 kts 99°
2026-05-07 09:58 45.62619 8.71606 739 ft 4 kts 82°
2026-05-07 09:58 45.62624 8.71644 740 ft 4 kts 78°
2026-05-07 09:59 45.62630 8.71682 740 ft 4 kts 78°
2026-05-07 09:59 45.62634 8.71708 740 ft 0 kts 79°
2026-05-07 10:03 45.62635 8.71716 740 ft 3 kts 79°
2026-05-07 10:03 45.62641 8.71766 738 ft 8 kts 79°
2026-05-07 10:03 45.62614 8.71839 740 ft 10 kts 162°
2026-05-07 10:04 45.62547 8.71858 739 ft 10 kts 169°
2026-05-07 10:04 45.62481 8.71876 740 ft 10 kts 169°
2026-05-07 10:04 45.62417 8.71894 740 ft 9 kts 169°
2026-05-07 10:04 45.62354 8.71910 739 ft 9 kts 169°
2026-05-07 10:05 45.62293 8.71928 740 ft 9 kts 169°
2026-05-07 10:05 45.62218 8.71949 740 ft 13 kts 169°
2026-05-07 10:05 45.62113 8.71978 740 ft 18 kts 169°
2026-05-07 10:05 45.61981 8.72015 739 ft 20 kts 169°
2026-05-07 10:06 45.61841 8.72053 739 ft 20 kts 169°
2026-05-07 10:06 45.61705 8.72091 740 ft 20 kts 169°
2026-05-07 10:06 45.61573 8.72127 740 ft 19 kts 169°
2026-05-07 10:06 45.61446 8.72162 740 ft 18 kts 169°
2026-05-07 10:07 45.61323 8.72196 740 ft 18 kts 169°
2026-05-07 10:07 45.61204 8.72229 740 ft 17 kts 168°
2026-05-07 10:07 45.61089 8.72262 741 ft 16 kts 168°
2026-05-07 10:07 45.60979 8.72294 739 ft 16 kts 168°
2026-05-07 10:08 45.60873 8.72322 741 ft 15 kts 169°
2026-05-07 10:08 45.60771 8.72348 741 ft 15 kts 169°
2026-05-07 10:08 45.60676 8.72386 741 ft 14 kts 146°
2026-05-07 10:08 45.60636 8.72505 741 ft 14 kts 95°
2026-05-07 10:09 45.60626 8.72639 741 ft 14 kts 96°
2026-05-07 10:09 45.60616 8.72778 741 ft 15 kts 96°
2026-05-07 10:09 45.60606 8.72927 741 ft 15 kts 96°
2026-05-07 10:09 45.60595 8.73084 740 ft 16 kts 96°
2026-05-07 10:10 45.60606 8.73240 741 ft 16 kts 56°
2026-05-07 10:10 45.60703 8.73310 741 ft 16 kts 21°
2026-05-07 10:10 45.60800 8.73365 741 ft 15 kts 21°
2026-05-07 10:10 45.60899 8.73407 741 ft 14 kts 359°
2026-05-07 10:11 45.60993 8.73383 741 ft 14 kts 348°
2026-05-07 10:11 45.61084 8.73356 741 ft 13 kts 348°
2026-05-07 10:11 45.61172 8.73331 741 ft 13 kts 348°
2026-05-07 10:11 45.61258 8.73307 741 ft 12 kts 348°
2026-05-07 10:12 45.61341 8.73283 741 ft 12 kts 348°
2026-05-07 10:12 45.61423 8.73261 741 ft 12 kts 351°
2026-05-07 10:12 45.61503 8.73239 741 ft 11 kts 348°
2026-05-07 10:12 45.61554 8.73225 740 ft 11 kts 348°
2026-05-07 10:13 45.61608 8.73246 740 ft 8 kts 61°
2026-05-07 10:13 45.61621 8.73317 739 ft 7 kts 77°
2026-05-07 10:13 45.61632 8.73388 740 ft 7 kts 81°
2026-05-07 10:13 45.61621 8.73456 740 ft 7 kts 114°
2026-05-07 10:14 45.61594 8.73525 740 ft 9 kts 112°
2026-05-07 10:14 45.61584 8.73617 740 ft 10 kts 83°
2026-05-07 10:14 45.61611 8.73718 738 ft 9 kts 44°
2026-05-07 10:14 45.61650 8.73728 738 ft 0 kts 349°
2026-05-07 10:16 45.61655 8.73727 737 ft 4 kts 349°
2026-05-07 10:16 45.61785 8.73691 739 ft 49 kts 347°
2026-05-07 10:16 45.62363 8.73531 742 ft 118 kts 349°
2026-05-07 10:17 45.63364 8.73253 789 ft 169 kts 349°
2026-05-07 10:17 45.64517 8.72944 1580 ft 167 kts 349°
2026-05-07 10:17 45.65693 8.72762 2288 ft 174 kts 12°
2026-05-07 10:17 45.66693 8.73653 3019 ft 171 kts 57°
2026-05-07 10:18 45.67049 8.75260 3739 ft 172 kts 85°
2026-05-07 10:18 45.67271 8.76958 4314 ft 185 kts 63°
2026-05-07 10:18 45.68230 8.78311 4686 ft 203 kts 35°
2026-05-07 10:18 45.69390 8.79539 5142 ft 211 kts 38°
2026-05-07 10:19 45.70526 8.80892 5693 ft 212 kts 41°
2026-05-07 10:19 45.71641 8.82293 6263 ft 217 kts 42°
2026-05-07 10:19 45.72598 8.83985 6760 ft 222 kts 70°
2026-05-07 10:19 45.72666 8.86186 7199 ft 233 kts 107°
2026-05-07 10:20 45.71820 8.88234 7571 ft 243 kts 127°
2026-05-07 10:20 45.70763 8.90120 8200 ft 245 kts 128°
2026-05-07 10:20 45.69721 8.92093 8677 ft 253 kts 126°
2026-05-07 10:20 45.68671 8.94145 9357 ft 256 kts 126°
2026-05-07 10:21 45.67621 8.96209 10126 ft 257 kts 126°
2026-05-07 10:21 45.66563 8.98288 10802 ft 260 kts 126°
2026-05-07 10:21 45.65496 9.00386 11476 ft 263 kts 127°
2026-05-07 10:21 45.64651 9.02715 12087 ft 271 kts 102°
2026-05-07 10:22 45.64517 9.05492 12355 ft 293 kts 90°
2026-05-07 10:22 45.64541 9.08520 12553 ft 316 kts 89°
2026-05-07 10:22 45.64587 9.11772 12759 ft 339 kts 89°
2026-05-07 10:22 45.64632 9.15205 13216 ft 351 kts 89°
2026-05-07 10:23 45.64669 9.18675 13899 ft 356 kts 89°
2026-05-07 10:23 45.64699 9.22229 14585 ft 360 kts 89°
2026-05-07 10:23 45.64722 9.25829 15285 ft 364 kts 89°
2026-05-07 10:23 45.64741 9.29464 15967 ft 368 kts 89°
2026-05-07 10:24 45.64757 9.33142 16656 ft 373 kts 89°
2026-05-07 10:24 45.64771 9.36868 17340 ft 377 kts 90°
2026-05-07 10:24 45.64784 9.40642 18093 ft 382 kts 90°
2026-05-07 10:24 45.64796 9.44456 18720 ft 386 kts 89°
2026-05-07 10:25 45.64806 9.48314 19332 ft 390 kts 89°
2026-05-07 10:25 45.64816 9.52201 19944 ft 393 kts 89°
2026-05-07 10:25 45.64824 9.56122 20466 ft 396 kts 90°
2026-05-07 10:25 45.64831 9.60076 21054 ft 400 kts 90°
2026-05-07 10:26 45.64838 9.64074 21638 ft 404 kts 90°
2026-05-07 10:26 45.64849 9.68104 22213 ft 407 kts 90°
2026-05-07 10:26 45.64861 9.72166 22778 ft 411 kts 90°
2026-05-07 10:26 45.64872 9.76267 23335 ft 414 kts 90°
2026-05-07 10:27 45.64881 9.80404 23804 ft 418 kts 90°
2026-05-07 10:27 45.64889 9.84579 24221 ft 422 kts 90°
2026-05-07 10:27 45.64895 9.88800 24635 ft 427 kts 90°
2026-05-07 10:27 45.64899 9.93054 25073 ft 430 kts 91°
2026-05-07 10:28 45.64902 9.97346 25489 ft 434 kts 91°
2026-05-07 10:28 45.64904 10.01680 25898 ft 438 kts 91°
2026-05-07 10:28 45.64904 10.06044 26305 ft 441 kts 91°
2026-05-07 10:28 45.65119 10.10433 26681 ft 446 kts 77°
2026-05-07 10:29 45.66233 10.14565 27066 ft 448 kts 58°
2026-05-07 10:29 45.68008 10.18226 27449 ft 450 kts 52°
2026-05-07 10:29 45.69880 10.21835 27784 ft 454 kts 52°
2026-05-07 10:30 45.73643 10.29158 28291 ft 467 kts 53°
2026-05-07 10:30 45.75547 10.32944 28645 ft 470 kts 54°
2026-05-07 10:30 45.77448 10.36756 29079 ft 471 kts 54°
2026-05-07 10:30 45.79355 10.40594 29395 ft 475 kts 54°
2026-05-07 10:31 45.81282 10.44469 29659 ft 480 kts 54°
2026-05-07 10:31 45.83221 10.48378 29994 ft 482 kts 54°
2026-05-07 10:31 45.85167 10.52309 30251 ft 486 kts 54°
2026-05-07 10:31 45.87126 10.56272 30515 ft 488 kts 54°
2026-05-07 10:32 45.89088 10.60242 30883 ft 486 kts 54°
2026-05-07 10:32 45.91074 10.64154 31334 ft 484 kts 50°
2026-05-07 10:32 45.93403 10.67630 31691 ft 483 kts 39°
2026-05-07 10:32 45.96071 10.70543 32006 ft 482 kts 31°
2026-05-07 10:33 45.98998 10.72849 32288 ft 480 kts 21°
2026-05-07 10:33 46.02045 10.74800 32653 ft 479 kts 20°
2026-05-07 10:33 46.05107 10.76710 32834 ft 482 kts 20°
2026-05-07 10:33 46.08207 10.78642 32947 ft 488 kts 21°
2026-05-07 10:34 46.11307 10.80596 33373 ft 485 kts 21°
2026-05-07 10:34 46.14381 10.82559 33857 ft 482 kts 21°
2026-05-07 10:34 46.17445 10.84535 34186 ft 482 kts 21°
2026-05-07 10:34 46.20504 10.86519 34446 ft 483 kts 21°
2026-05-07 10:35 46.23568 10.88514 34733 ft 483 kts 21°
2026-05-07 10:35 46.26626 10.90509 35048 ft 481 kts 21°
2026-05-07 10:35 46.29674 10.92499 35344 ft 480 kts 21°
2026-05-07 10:35 46.32712 10.94484 35623 ft 479 kts 21°
2026-05-07 10:36 46.35752 10.96472 35870 ft 479 kts 21°
2026-05-07 10:36 46.38789 10.98459 36073 ft 481 kts 21°
2026-05-07 10:36 46.41852 11.00464 35957 ft 484 kts 21°
2026-05-07 10:36 46.44918 11.02474 35981 ft 483 kts 22°
2026-05-07 10:37 46.51010 11.06480 35953 ft 477 kts 22°
2026-05-07 10:37 46.57039 11.10454 35973 ft 475 kts 22°
2026-05-07 10:38 46.63058 11.14437 35971 ft 475 kts 22°
2026-05-07 10:38 46.69078 11.18414 35986 ft 475 kts 22°
2026-05-07 10:39 46.75108 11.22412 35986 ft 477 kts 22°
2026-05-07 10:39 46.81156 11.26436 35994 ft 478 kts 22°
2026-05-07 10:40 46.87219 11.30481 35984 ft 479 kts 22°
2026-05-07 10:40 46.93279 11.34534 35991 ft 479 kts 22°
2026-05-07 10:41 46.99573 11.37443 35979 ft 472 kts
2026-05-07 10:41 47.06074 11.37830 35991 ft 467 kts 355°
2026-05-07 10:42 47.12571 11.37647 35994 ft 467 kts 355°
2026-05-07 10:42 47.19065 11.37501 36002 ft 467 kts 355°
2026-05-07 10:43 47.25569 11.37415 36009 ft 468 kts 356°
2026-05-07 10:43 47.32040 11.37352 36008 ft 469 kts 356°
2026-05-07 10:44 47.38569 11.37291 35990 ft 469 kts 356°
2026-05-07 10:44 47.45106 11.37224 35997 ft 470 kts 356°
2026-05-07 10:45 47.51640 11.37156 35981 ft 469 kts 356°
2026-05-07 10:45 47.58159 11.37087 35976 ft 468 kts 356°
2026-05-07 10:46 47.64668 11.37019 35988 ft 467 kts 356°
2026-05-07 10:46 47.71165 11.36951 35986 ft 466 kts 356°
2026-05-07 10:47 47.77642 11.36884 35987 ft 465 kts 356°
2026-05-07 10:47 47.84096 11.36816 36005 ft 463 kts 356°
2026-05-07 10:48 47.90536 11.36840 36017 ft 463 kts 358°
2026-05-07 10:48 47.96975 11.37009 36017 ft 462 kts 358°
2026-05-07 10:49 48.03406 11.37184 36021 ft 462 kts 358°
2026-05-07 10:49 48.09828 11.37338 36024 ft 462 kts 358°
2026-05-07 10:50 48.16255 11.37483 36022 ft 462 kts 358°
2026-05-07 10:50 48.22681 11.37625 36019 ft 462 kts 358°
2026-05-07 10:51 48.29115 11.37769 36018 ft 463 kts 358°
2026-05-07 10:51 48.35558 11.37913 36015 ft 463 kts 358°
2026-05-07 10:52 48.42010 11.38059 36018 ft 464 kts 358°
2026-05-07 10:52 48.48474 11.38205 36015 ft 465 kts 358°
2026-05-07 10:53 48.54903 11.38351 36030 ft 465 kts 358°
2026-05-07 10:53 48.61373 11.38498 36016 ft 465 kts 358°
2026-05-07 10:54 48.67834 11.38646 36018 ft 464 kts 358°
2026-05-07 10:54 48.74274 11.38793 36039 ft 462 kts 359°
2026-05-07 10:55 48.80692 11.38940 36021 ft 460 kts 358°
2026-05-07 10:55 48.87127 11.39088 36008 ft 458 kts 358°
2026-05-07 10:56 48.93447 11.39233 36005 ft 456 kts 358°
2026-05-07 10:56 48.99791 11.39379 35995 ft 455 kts 359°
2026-05-07 10:57 49.06115 11.39526 35982 ft 454 kts 359°
2026-05-07 10:57 49.12424 11.39672 35983 ft 453 kts 359°
2026-05-07 10:58 49.18719 11.39818 35990 ft 452 kts 359°
2026-05-07 10:58 49.25011 11.39965 35989 ft 453 kts 359°
2026-05-07 10:59 49.30290 11.40088 35989 ft 453 kts 359°
2026-05-07 10:59 49.36560 11.40235 35992 ft 454 kts 359°
2026-05-07 11:00 49.42927 11.40334 35997 ft 455 kts 358°
2026-05-07 11:00 49.49230 11.40275 35993 ft 456 kts 357°
2026-05-07 11:01 49.55590 11.40194 35979 ft 457 kts 358°
2026-05-07 11:01 49.61955 11.40132 35973 ft 458 kts 358°
2026-05-07 11:02 49.68330 11.40083 35963 ft 458 kts 358°
2026-05-07 11:02 49.74698 11.40038 35965 ft 458 kts 358°
2026-05-07 11:03 49.81064 11.39993 35966 ft 457 kts 358°
2026-05-07 11:03 49.87427 11.39947 35983 ft 457 kts 358°
2026-05-07 11:04 49.93778 11.39901 35954 ft 456 kts 358°
2026-05-07 11:04 50.00113 11.39856 35952 ft 454 kts 358°
2026-05-07 11:05 50.06427 11.39810 35945 ft 453 kts 358°
2026-05-07 11:05 50.12715 11.39763 35954 ft 451 kts 358°
2026-05-07 11:06 50.18993 11.39717 35944 ft 450 kts 358°
2026-05-07 11:06 50.25254 11.39671 35950 ft 450 kts 358°
2026-05-07 11:07 50.31515 11.39625 35953 ft 450 kts 358°
2026-05-07 11:07 50.37776 11.39578 35945 ft 450 kts 358°
2026-05-07 11:08 50.44036 11.39532 35950 ft 450 kts 358°
2026-05-07 11:08 50.50268 11.39486 35946 ft 451 kts 358°
2026-05-07 11:09 50.56551 11.39439 35954 ft 452 kts 358°
2026-05-07 11:09 50.62842 11.39392 35951 ft 452 kts 358°
2026-05-07 11:10 50.69142 11.39345 35959 ft 453 kts 358°
2026-05-07 11:10 50.75451 11.39297 35954 ft 453 kts 358°
2026-05-07 11:11 50.81761 11.39250 35964 ft 454 kts 358°
2026-05-07 11:11 50.88074 11.39202 35977 ft 454 kts 358°
2026-05-07 11:12 50.94391 11.39154 35968 ft 454 kts 358°
2026-05-07 11:12 51.00703 11.39107 35986 ft 453 kts 359°
2026-05-07 11:13 51.07004 11.39059 35976 ft 452 kts 359°
2026-05-07 11:13 51.13302 11.39011 35973 ft 453 kts 359°
2026-05-07 11:14 51.19587 11.38963 35983 ft 451 kts 359°
2026-05-07 11:14 51.25849 11.38915 35989 ft 449 kts 359°
2026-05-07 11:15 51.32090 11.38867 35990 ft 448 kts 359°
2026-05-07 11:15 51.38315 11.38819 35990 ft 447 kts 359°
2026-05-07 11:16 51.44534 11.38770 36012 ft 448 kts 359°
2026-05-07 11:16 51.50779 11.38722 35992 ft 449 kts 359°
2026-05-07 11:17 51.57031 11.38673 36006 ft 449 kts 359°
2026-05-07 11:17 51.63270 11.38624 36013 ft 448 kts 359°
2026-05-07 11:18 51.69500 11.38576 36015 ft 447 kts 359°
2026-05-07 11:18 51.75689 11.38527 36034 ft 448 kts 359°
2026-05-07 11:19 51.81942 11.38478 36027 ft 450 kts 359°
2026-05-07 11:19 51.88216 11.38428 36023 ft 452 kts 359°
2026-05-07 11:20 51.94509 11.38379 36024 ft 453 kts 359°
2026-05-07 11:20 52.00795 11.38329 36015 ft 450 kts 359°
2026-05-07 11:21 52.07056 11.38279 36012 ft 450 kts 359°
2026-05-07 11:21 52.13310 11.38229 36024 ft 449 kts 359°
2026-05-07 11:22 52.19544 11.38180 36015 ft 447 kts 359°
2026-05-07 11:22 52.25746 11.38130 36013 ft 445 kts 359°
2026-05-07 11:23 52.31920 11.38081 36020 ft 443 kts 359°
2026-05-07 11:23 52.38071 11.38031 36023 ft 442 kts 359°
2026-05-07 11:24 52.44223 11.37981 36029 ft 442 kts 359°
2026-05-07 11:24 52.50377 11.37931 36030 ft 443 kts 359°
2026-05-07 11:25 52.56545 11.37881 36036 ft 444 kts 358°
2026-05-07 11:25 52.62731 11.37830 36038 ft 445 kts 359°
2026-05-07 11:26 52.68944 11.37779 36032 ft 447 kts 358°
2026-05-07 11:26 52.75169 11.37728 36039 ft 448 kts 359°
2026-05-07 11:27 52.81409 11.37677 36033 ft 449 kts 358°
2026-05-07 11:27 52.87609 11.37626 36040 ft 449 kts 359°
2026-05-07 11:28 52.93854 11.37574 36041 ft 449 kts 358°
2026-05-07 11:28 53.00097 11.37522 36039 ft 448 kts 358°
2026-05-07 11:29 53.06332 11.37471 36044 ft 448 kts 358°
2026-05-07 11:29 53.12561 11.37419 36040 ft 447 kts 359°
2026-05-07 11:30 53.18780 11.37367 36041 ft 447 kts 358°
2026-05-07 11:30 53.24992 11.37315 36044 ft 446 kts 359°
2026-05-07 11:31 53.31198 11.37262 36044 ft 446 kts 358°
2026-05-07 11:31 53.37392 11.37210 36051 ft 445 kts 358°
2026-05-07 11:32 53.46672 11.37132 36044 ft 444 kts 359°
2026-05-07 11:33 53.52835 11.37081 36048 ft 443 kts 358°
2026-05-07 11:33 53.59002 11.37030 36052 ft 443 kts 359°
2026-05-07 11:34 53.65165 11.36977 36051 ft 443 kts 358°
2026-05-07 11:34 53.71322 11.36923 36053 ft 442 kts 358°
2026-05-07 11:35 53.77475 11.36869 36060 ft 442 kts 359°
2026-05-07 11:35 53.83631 11.36815 36055 ft 442 kts 358°
2026-05-07 11:36 53.89782 11.36762 36066 ft 442 kts 358°
2026-05-07 11:36 53.95935 11.36710 36074 ft 442 kts 358°
2026-05-07 11:37 54.02089 11.36653 36078 ft 442 kts 359°
2026-05-07 11:37 54.08243 11.36597 36072 ft 442 kts 358°
2026-05-07 11:38 54.14398 11.36548 36080 ft 442 kts 358°
2026-05-07 11:38 54.20553 11.36496 36082 ft 442 kts 358°
2026-05-07 11:39 54.26704 11.36439 36088 ft 442 kts 358°
2026-05-07 11:39 54.32818 11.36384 36090 ft 442 kts 358°
2026-05-07 11:40 54.38970 11.36330 36093 ft 442 kts 358°
2026-05-07 11:40 54.45120 11.36275 36094 ft 442 kts 358°
2026-05-07 11:41 54.51266 11.36221 36100 ft 442 kts 358°
2026-05-07 11:41 54.57417 11.36165 36092 ft 442 kts 358°
2026-05-07 11:42 54.63561 11.36110 36102 ft 441 kts 358°
2026-05-07 11:42 54.69703 11.36055 36093 ft 441 kts 358°
2026-05-07 11:43 54.75827 11.36000 36103 ft 440 kts 358°
2026-05-07 11:43 54.81938 11.35944 36094 ft 438 kts 358°
2026-05-07 11:44 54.88023 11.35889 36106 ft 437 kts 358°
2026-05-07 11:44 54.94092 11.35834 36098 ft 435 kts 358°
2026-05-07 11:45 55.00142 11.35778 36109 ft 434 kts 358°
2026-05-07 11:45 55.06177 11.35723 36106 ft 433 kts 358°
2026-05-07 11:46 55.12156 11.35668 36104 ft 432 kts 358°
2026-05-07 11:46 55.18164 11.35613 36105 ft 431 kts 358°
2026-05-07 11:47 55.24164 11.35557 36107 ft 431 kts 358°
2026-05-07 11:47 55.29150 11.35511 36114 ft 431 kts 358°
2026-05-07 11:48 55.35151 11.35455 36100 ft 431 kts 358°
2026-05-07 11:48 55.41153 11.35399 36112 ft 431 kts 358°
2026-05-07 11:49 55.47162 11.35343 36100 ft 432 kts 358°
2026-05-07 11:49 55.53172 11.35286 36107 ft 432 kts 358°
2026-05-07 11:50 55.59189 11.35229 36108 ft 433 kts 358°
2026-05-07 11:50 55.65213 11.35172 36101 ft 433 kts 358°
2026-05-07 11:51 55.71238 11.35116 36106 ft 433 kts 358°
2026-05-07 11:51 55.77267 11.35058 36107 ft 433 kts 358°
2026-05-07 11:52 55.83295 11.35001 36108 ft 433 kts 358°
2026-05-07 11:52 55.89317 11.34944 36117 ft 432 kts 358°
2026-05-07 11:53 55.95328 11.34886 36113 ft 431 kts 358°
2026-05-07 11:53 56.01324 11.34829 36107 ft 430 kts 358°
2026-05-07 11:54 56.07300 11.34771 36120 ft 429 kts 358°
2026-05-07 11:54 56.13255 11.34714 36109 ft 427 kts 358°
2026-05-07 11:55 56.19194 11.34656 36111 ft 426 kts 358°
2026-05-07 11:55 56.25075 11.34599 36112 ft 425 kts 358°
2026-05-07 11:56 56.30990 11.34541 36112 ft 425 kts 358°
2026-05-07 11:56 56.36899 11.34483 36115 ft 425 kts 357°
2026-05-07 11:57 56.42810 11.34425 36112 ft 425 kts 357°
2026-05-07 11:57 56.48721 11.34366 36112 ft 425 kts 357°
2026-05-07 11:58 56.54640 11.34308 36112 ft 425 kts 357°
2026-05-07 11:58 56.60564 11.34249 36129 ft 426 kts 357°
2026-05-07 11:59 56.66495 11.34190 36116 ft 426 kts 357°
2026-05-07 11:59 56.72431 11.34131 36111 ft 427 kts 357°
2026-05-07 12:00 56.78374 11.34071 36107 ft 427 kts 357°
2026-05-07 12:00 56.84315 11.34012 36114 ft 427 kts 357°
2026-05-07 12:01 56.90254 11.33952 36127 ft 427 kts 356°
2026-05-07 12:01 56.96196 11.33892 36113 ft 427 kts 356°
2026-05-07 12:02 57.02137 11.33832 36114 ft 427 kts 356°
2026-05-07 12:02 57.08030 11.33772 36117 ft 426 kts 356°
2026-05-07 12:03 57.13954 11.33712 36111 ft 426 kts 356°
2026-05-07 12:03 57.19876 11.33651 36112 ft 425 kts 356°
2026-05-07 12:04 57.25793 11.33591 36111 ft 425 kts 356°
2026-05-07 12:04 57.31704 11.33530 36112 ft 425 kts 356°
2026-05-07 12:05 57.37611 11.33468 36112 ft 424 kts 356°
2026-05-07 12:05 57.43515 11.33407 36124 ft 424 kts 355°
2026-05-07 12:06 57.49424 11.33346 36119 ft 425 kts 355°
2026-05-07 12:06 57.55334 11.33284 36114 ft 425 kts 355°
2026-05-07 12:07 57.61242 11.33222 36113 ft 425 kts 355°
2026-05-07 12:07 57.67159 11.33160 36113 ft 425 kts 355°
2026-05-07 12:08 57.73074 11.33097 36114 ft 426 kts 355°
2026-05-07 12:08 57.78998 11.33034 36111 ft 426 kts 355°
2026-05-07 12:09 57.84928 11.32972 36111 ft 426 kts 355°
2026-05-07 12:09 57.90821 11.32909 36109 ft 426 kts 355°
2026-05-07 12:10 57.96753 11.32846 36109 ft 426 kts 355°
2026-05-07 12:10 58.02690 11.32782 36123 ft 427 kts 354°
2026-05-07 12:11 58.08632 11.32718 36112 ft 427 kts 354°
2026-05-07 12:11 58.14574 11.32654 36111 ft 427 kts 354°
2026-05-07 12:12 58.20517 11.32590 36108 ft 427 kts 354°
2026-05-07 12:12 58.26456 11.32526 36112 ft 427 kts 354°
2026-05-07 12:13 58.32392 11.32461 36063 ft 427 kts 354°
2026-05-07 12:13 58.35370 11.32427 35733 ft 427 kts 354°
2026-05-07 12:13 58.38319 11.32398 35369 ft 421 kts 354°
2026-05-07 12:13 58.41236 11.32371 34980 ft 417 kts 354°
2026-05-07 12:14 58.44117 11.32342 34592 ft 412 kts 354°
2026-05-07 12:14 58.46973 11.32312 34210 ft 408 kts 354°
2026-05-07 12:14 58.49802 11.32281 33768 ft 405 kts 354°
2026-05-07 12:14 58.52604 11.32250 33348 ft 401 kts 354°
2026-05-07 12:15 58.55377 11.32220 32983 ft 396 kts 353°
2026-05-07 12:15 58.58121 11.32189 32578 ft 392 kts 353°
2026-05-07 12:15 58.60836 11.32159 32190 ft 388 kts 353°
2026-05-07 12:15 58.63525 11.32129 31812 ft 384 kts 353°
2026-05-07 12:16 58.66188 11.32099 31434 ft 381 kts 353°
2026-05-07 12:16 58.68827 11.32070 31062 ft 378 kts 353°
2026-05-07 12:16 58.71447 11.32040 30695 ft 375 kts 353°
2026-05-07 12:16 58.74045 11.32010 30333 ft 372 kts 353°
2026-05-07 12:17 58.76588 11.31981 29938 ft 369 kts 353°
2026-05-07 12:17 58.79143 11.31952 29540 ft 365 kts 353°
2026-05-07 12:17 58.81670 11.31925 29162 ft 361 kts 353°
2026-05-07 12:17 58.84167 11.31896 28812 ft 358 kts 352°
2026-05-07 12:18 58.86647 11.31867 28403 ft 355 kts 352°
2026-05-07 12:18 58.89105 11.31840 28032 ft 351 kts 352°
2026-05-07 12:18 58.91542 11.31813 27644 ft 348 kts 352°
2026-05-07 12:18 58.93952 11.31786 27299 ft 345 kts 352°
2026-05-07 12:19 58.96345 11.31758 26922 ft 343 kts 352°
2026-05-07 12:19 58.98721 11.31730 26561 ft 340 kts 352°
2026-05-07 12:19 59.01081 11.31702 26204 ft 338 kts 352°
2026-05-07 12:19 59.03426 11.31676 25848 ft 336 kts 352°
2026-05-07 12:20 59.05752 11.31648 25494 ft 334 kts 352°
2026-05-07 12:20 59.08067 11.31621 25146 ft 332 kts 352°
2026-05-07 12:20 59.10371 11.31593 24803 ft 330 kts 352°
2026-05-07 12:20 59.12665 11.31566 24468 ft 330 kts 352°
2026-05-07 12:21 59.14959 11.31539 24105 ft 329 kts 352°
2026-05-07 12:21 59.17242 11.31515 23741 ft 329 kts 352°
2026-05-07 12:21 59.19541 11.32076 23320 ft 340 kts
2026-05-07 12:21 59.21793 11.33494 22960 ft 340 kts 11°
2026-05-07 12:22 59.24029 11.34965 22583 ft 338 kts 11°
2026-05-07 12:22 59.26250 11.36421 22226 ft 336 kts 11°
2026-05-07 12:22 59.28461 11.37852 21895 ft 333 kts 11°
2026-05-07 12:22 59.30657 11.39256 21547 ft 331 kts 11°
2026-05-07 12:23 59.32839 11.40642 21221 ft 329 kts 11°
2026-05-07 12:23 59.35009 11.42016 20886 ft 327 kts 11°
2026-05-07 12:23 59.37167 11.43381 20555 ft 325 kts 11°
2026-05-07 12:23 59.39315 11.44742 20255 ft 324 kts 11°
2026-05-07 12:24 59.41454 11.46099 19913 ft 323 kts 11°
2026-05-07 12:24 59.43587 11.47449 19575 ft 322 kts 11°
2026-05-07 12:24 59.45714 11.48790 19245 ft 320 kts 11°
2026-05-07 12:24 59.47834 11.50127 18913 ft 319 kts 11°
2026-05-07 12:25 59.49944 11.51458 18592 ft 318 kts 11°
2026-05-07 12:25 59.52051 11.52789 18251 ft 318 kts 12°
2026-05-07 12:25 59.54151 11.54118 17883 ft 317 kts 12°
2026-05-07 12:25 59.56244 11.55446 17537 ft 315 kts 12°
2026-05-07 12:26 59.58321 11.56765 17202 ft 313 kts 12°
2026-05-07 12:26 59.60383 11.58078 16886 ft 310 kts 12°
2026-05-07 12:26 59.62432 11.59383 16562 ft 309 kts 12°
2026-05-07 12:26 59.64444 11.60665 16245 ft 307 kts 13°
2026-05-07 12:27 59.66468 11.61957 15955 ft 305 kts 13°
2026-05-07 12:27 59.68482 11.63242 15634 ft 304 kts 13°
2026-05-07 12:27 59.70487 11.64524 15315 ft 302 kts 13°
2026-05-07 12:27 59.72485 11.65805 14996 ft 301 kts 13°
2026-05-07 12:28 59.74473 11.67081 14681 ft 300 kts 13°
2026-05-07 12:28 59.76454 11.68354 14372 ft 299 kts 13°
2026-05-07 12:28 59.78428 11.69625 14058 ft 298 kts 13°
2026-05-07 12:28 59.80393 11.70890 13728 ft 296 kts 14°
2026-05-07 12:29 59.82353 11.72154 13391 ft 295 kts 14°
2026-05-07 12:29 59.84301 11.73413 13070 ft 294 kts 14°
2026-05-07 12:29 59.86241 11.74666 12756 ft 292 kts 14°
2026-05-07 12:29 59.88172 11.75914 12433 ft 291 kts 14°
2026-05-07 12:30 59.90081 11.77152 12141 ft 288 kts 14°
2026-05-07 12:30 59.91980 11.78384 11841 ft 286 kts 14°
2026-05-07 12:30 59.93865 11.79610 11565 ft 284 kts 14°
2026-05-07 12:30 59.95738 11.80831 11250 ft 283 kts 15°
2026-05-07 12:31 59.97604 11.82049 10954 ft 281 kts 15°
2026-05-07 12:31 59.99461 11.83261 10640 ft 280 kts 15°
2026-05-07 12:31 60.01312 11.84473 10344 ft 279 kts 15°
2026-05-07 12:31 60.03140 11.85674 10183 ft 273 kts 15°
2026-05-07 12:32 60.04919 11.86842 10024 ft 267 kts 15°
2026-05-07 12:32 60.06682 11.87999 9723 ft 266 kts 16°
2026-05-07 12:32 60.08435 11.89151 9434 ft 265 kts 16°
2026-05-07 12:32 60.10180 11.90300 9173 ft 263 kts 16°
2026-05-07 12:33 60.13674 11.90925 9033 ft 252 kts 336°
2026-05-07 12:33 60.15145 11.88926 8698 ft 258 kts 317°
2026-05-07 12:33 60.16494 11.86526 8435 ft 259 kts 317°
2026-05-07 12:34 60.17838 11.84110 8266 ft 260 kts 317°
2026-05-07 12:34 60.19194 11.81668 8076 ft 263 kts 317°
2026-05-07 12:34 60.20558 11.79212 7886 ft 262 kts 317°
2026-05-07 12:34 60.21904 11.76793 7709 ft 257 kts 317°
2026-05-07 12:35 60.22781 11.75217 7588 ft 254 kts 317°
2026-05-07 12:35 60.24099 11.72847 7419 ft 255 kts 317°
2026-05-07 12:35 60.25429 11.70454 7224 ft 258 kts 317°
2026-05-07 12:35 60.26774 11.68041 7022 ft 260 kts 317°
2026-05-07 12:36 60.28125 11.65612 6841 ft 259 kts 317°
2026-05-07 12:36 60.29464 11.63205 6643 ft 257 kts 317°
2026-05-07 12:36 60.30787 11.60822 6462 ft 253 kts 317°
2026-05-07 12:36 60.32100 11.58454 6285 ft 253 kts 317°
2026-05-07 12:37 60.33414 11.56082 6108 ft 253 kts 317°
2026-05-07 12:37 60.34725 11.53715 5938 ft 253 kts 317°
2026-05-07 12:37 60.36035 11.51347 5767 ft 253 kts 317°
2026-05-07 12:37 60.37347 11.48978 5582 ft 253 kts 317°
2026-05-07 12:38 60.38653 11.46608 5417 ft 250 kts 317°
2026-05-07 12:38 60.39933 11.44282 5231 ft 245 kts 317°
2026-05-07 12:38 60.41166 11.41966 5064 ft 238 kts 310°
2026-05-07 12:38 60.41846 11.39048 4996 ft 228 kts 278°
2026-05-07 12:39 60.41852 11.35861 4758 ft 227 kts 262°
2026-05-07 12:39 60.41601 11.32742 4605 ft 224 kts 261°
2026-05-07 12:39 60.41355 11.29676 4454 ft 218 kts 261°
2026-05-07 12:39 60.41124 11.26731 4337 ft 207 kts 261°
2026-05-07 12:40 60.40905 11.23912 4154 ft 199 kts 261°
2026-05-07 12:40 60.40603 11.21257 3990 ft 191 kts 242°
2026-05-07 12:40 60.39622 11.19565 3907 ft 192 kts 200°
2026-05-07 12:40 60.38329 11.18837 3749 ft 193 kts 198°
2026-05-07 12:41 60.37054 11.18070 3637 ft 190 kts 196°
2026-05-07 12:41 60.35772 11.17358 3540 ft 191 kts 197°
2026-05-07 12:41 60.34498 11.16606 3393 ft 190 kts 197°
2026-05-07 12:41 60.33226 11.15873 3136 ft 189 kts 197°
2026-05-07 12:42 60.31991 11.15165 2879 ft 185 kts 197°
2026-05-07 12:42 60.30754 11.14541 2662 ft 182 kts 194°
2026-05-07 12:42 60.29553 11.13831 2313 ft 177 kts 200°
2026-05-07 12:42 60.28416 11.13110 2139 ft 169 kts 198°
2026-05-07 12:43 60.27321 11.12466 1957 ft 157 kts 198°
2026-05-07 12:43 60.26286 11.11869 1693 ft 145 kts 197°
2026-05-07 12:43 60.25340 11.11324 1480 ft 141 kts 197°
2026-05-07 12:43 60.24399 11.10780 1299 ft 142 kts 197°
2026-05-07 12:44 60.23440 11.10225 1100 ft 144 kts 196°
2026-05-07 12:44 60.22474 11.09676 890 ft 144 kts 197°
2026-05-07 12:44 60.21516 11.09107 718 ft 143 kts 196°
2026-05-07 12:44 60.20626 11.08600 678 ft 116 kts 196°
2026-05-07 12:45 60.20000 11.08238 673 ft 71 kts 196°
2026-05-07 12:45 60.19732 11.08112 673 ft 23 kts 184°
2026-05-07 12:45 60.19604 11.08162 671 ft 14 kts 144°
2026-05-07 12:45 60.19572 11.08272 672 ft 7 kts 106°
2026-05-07 12:46 60.19560 11.08358 676 ft 4 kts 106°
2026-05-07 12:46 60.19555 11.08393 676 ft 0 kts 106°
2026-05-07 12:46 60.19552 11.08415 676 ft 4 kts 106°
2026-05-07 12:46 60.19549 11.08514 677 ft 9 kts 65°
2026-05-07 12:47 60.19600 11.08573 677 ft 9 kts 15°
2026-05-07 12:47 60.19658 11.08605 677 ft 9 kts 15°
2026-05-07 12:47 60.19714 11.08638 678 ft 8 kts 16°
2026-05-07 12:47 60.19768 11.08669 678 ft 8 kts 16°
2026-05-07 12:48 60.19821 11.08700 678 ft 8 kts 16°
2026-05-07 12:48 60.19872 11.08730 678 ft 8 kts 16°
2026-05-07 12:48 60.19924 11.08760 679 ft 9 kts 16°
2026-05-07 12:48 60.19997 11.08802 679 ft 13 kts 16°
2026-05-07 12:49 60.20096 11.08858 678 ft 16 kts 16°
2026-05-07 12:49 60.20175 11.08904 680 ft 8 kts 19°
2026-05-07 12:49 60.20191 11.09007 679 ft 9 kts 109°
2026-05-07 12:49 60.20170 11.09133 679 ft 10 kts 109°
2026-05-07 12:50 60.20149 11.09294 680 ft 14 kts 104°
2026-05-07 12:50 60.20120 11.09498 680 ft 17 kts 106°
2026-05-07 12:50 60.20085 11.09743 683 ft 19 kts 105°
2026-05-07 12:50 60.20048 11.09995 681 ft 19 kts 106°
2026-05-07 12:51 60.20013 11.10236 685 ft 18 kts 106°
2026-05-07 12:51 60.19980 11.10473 680 ft 15 kts 106°
2026-05-07 12:51 60.19955 11.10648 684 ft 10 kts 106°
2026-05-07 12:51 60.19914 11.10735 682 ft 9 kts 180°
2026-05-07 12:52 60.19852 11.10703 682 ft 10 kts 196°
2026-05-07 12:52 60.19784 11.10663 681 ft 10 kts 196°
2026-05-07 12:52 60.19716 11.10625 682 ft 10 kts 195°
2026-05-07 12:52 60.19651 11.10588 682 ft 10 kts 195°
2026-05-07 12:53 60.19587 11.10552 682 ft 9 kts 195°
2026-05-07 12:53 60.19520 11.10522 682 ft 10 kts 191°
2026-05-07 12:53 60.19462 11.10490 679 ft 2 kts 195°
2026-05-07 12:53 60.19449 11.10482 680 ft 3 kts 195°
2026-05-07 12:54 60.19425 11.10469 684 ft 3 kts 196°
2026-05-07 12:54 60.19420 11.10466 684 ft 1 kts 196°
2026-05-07 12:54 60.19416 11.10464 684 ft 0 kts 196°